This demonstration page uses our WeatherBlox Daily Observations layout. Learn more.

Left ArrowRight Arrow

44.89941, -97.11507

Hourly Observations for November 1, 2021

Temp ( °F °C ) Dew Point ( °F °C ) Humidity (%) Winds ( mph kmh ) Pressure ( in mb ) Visibility ( mi km ) Precip ( " mm )
12:53 am 00:53 Clear 32 0 25 -3.9 75 75 NW 12 19 30.30 1026 10 16 0.00 0.00
1:53 am 01:53 Clear 31 -0.6 24 -4.4 76 76 NW 9 15 30.31 1026 10 16 0.00 0.00
2:53 am 02:53 Clear 30 -1.1 24 -4.4 79 79 WNW 7 11 30.32 1027 10 16 0.00 0.00
3:53 am 03:53 Clear 30 -1.1 24 -4.4 79 79 WNW 7 11 30.33 1027 10 16 0.00 0.00
4:53 am 04:53 Clear 30 -1.1 23 -5 75 75 W 8 13 30.34 1027 10 16 0.00 0.00
5:53 am 05:53 Clear 28 -2.2 23 -5 81 81 W 7 11 30.35 1028 10 16 0.00 0.00
6:53 am 06:53 Clear 29 -1.7 23 -5 78 78 WNW 8 13 30.36 1028 10 16 0.00 0.00
7:53 am 07:53 Clear 28 -2.2 22 -5.6 78 78 WNW 6 9 30.37 1029 10 16 0.00 0.00
8:53 am 08:53 Mostly Cloudy 27 -2.8 23 -5 85 85 W 7 11 30.40 1029 10 16 0.00 0.00
9:53 am 09:53 Mostly Cloudy 30 -1.1 24 -4.4 79 79 W 8 13 30.41 1030 10 16 0.00 0.00
10:53 am 10:53 Sunny 35 1.7 26 -3.3 70 70 W 8 13 30.41 1030 10 16 0.00 0.00
11:53 am 11:53 Sunny 38 3.3 26 -3.3 62 62 WNW 10 17 30.40 1030 10 16 0.00 0.00
12:53 pm 12:53 Cloudy 41 5 24 -4.4 51 51 WNW 14 22 30.40 1029 10 16 0.00 0.00
1:53 pm 13:53 Cloudy 40 4.4 21 -6.1 47 47 WNW 12 19 30.38 1029 10 16 0.00 0.00
2:53 pm 14:53 Cloudy 40 4.4 22 -5.6 49 49 WNW 15 24 30.38 1029 10 16 0.00 0.00
3:53 pm 15:53 Mostly Cloudy 39 3.9 22 -5.6 50 50 WNW 9 15 30.37 1029 10 16 0.00 0.00
4:53 pm 16:53 Cloudy 39 3.9 22 -5.6 50 50 WNW 12 19 30.37 1028 10 16 0.00 0.00
5:53 pm 17:53 Cloudy 38 3.3 22 -5.6 52 52 WNW 8 13 30.37 1029 10 16 0.00 0.00
6:53 pm 18:53 Partly Cloudy 35 1.7 23 -5 61 61 WNW 7 11 30.38 1029 10 16 0.00 0.00
7:53 pm 19:53 Clear 33 0.6 24 -4.4 70 70 NW 5 7 30.39 1029 10 16 0.00 0.00
8:53 pm 20:53 Cloudy 31 -0.6 26 -3.3 82 82 N 6 9 30.41 1030 10 16 0.00 0.00
9:53 pm 21:53 Cloudy 34 1.1 25 -3.9 70 70 NNW 7 11 30.41 1030 10 16 0.00 0.00
10:53 pm 22:53 Cloudy 31 -0.6 25 -3.9 79 79 Calm 30.41 1030 10 16 0.00 0.00
11:53 pm 23:53 Cloudy 32 0 25 -3.9 75 75 NW 8 13 30.41 1030 10 16 0.00 0.00

Powered by AerisWeather